| time (UTC) | temp C | wind direction | speed KPH | gust KPH | rain 1hr cm | rain 24hr cm | rain mn cm | humidity % | barometer mb |
| 20260510204241 | 29 | 146 | 6.4 | 9.7 | 0.00 | 0.03 | 0.03 | 74 | 1018.1 |
| 20260510203738 | 30 | 85 | 3.2 | 6.4 | 0.00 | 0.03 | 0.03 | 73 | 1018.4 |
| 20260510203236 | 30 | 106 | 3.2 | 11.3 | 0.00 | 0.03 | 0.03 | 75 | 1018.3 |
| 20260510202735 | 30 | 254 | 3.2 | 9.7 | 0.00 | 0.03 | 0.03 | 74 | 1018.1 |
| 20260510202231 | 30 | 0 | 3.2 | 17.7 | 0.00 | 0.03 | 0.03 | 74 | 1018.1 |
| 20260510201728 | 30 | 113 | 3.2 | 6.4 | 0.00 | 0.03 | 0.03 | 73 | 1018.3 |
| 20260510201225 | 30 | 175 | 3.2 | 12.9 | 0.00 | 0.03 | 0.03 | 74 | 1018.2 |
| 20260510200721 | 30 | 323 | 3.2 | 6.4 | 0.00 | 0.03 | 0.03 | 70 | 1018.4 |
| 20260510200219 | 31 | 283 | 0.0 | 4.8 | 0.00 | 0.03 | 0.03 | 72 | 1018.4 |
| 20260510195716 | 30 | 66 | 1.6 | 6.4 | 0.00 | 0.03 | 0.03 | 71 | 1018.3 |
| 20260510195213 | 29 | 151 | 0.0 | 4.8 | 0.00 | 0.03 | 0.03 | 74 | 1018.3 |
| 20260510194712 | 30 | 232 | 0.0 | 6.4 | 0.00 | 0.03 | 0.03 | 73 | 1018.2 |
| 20260510194209 | 30 | 192 | 1.6 | 4.8 | 0.00 | 0.03 | 0.03 | 72 | 1018.3 |
| 20260510193704 | 31 | 233 | 3.2 | 9.7 | 0.00 | 0.03 | 0.03 | 69 | 1018.4 |
| 20260510193159 | 30 | 255 | 1.6 | 3.2 | 0.00 | 0.03 | 0.03 | 73 | 1018.5 |
| 20260510192655 | 30 | 240 | 0.0 | 8.0 | 0.00 | 0.03 | 0.03 | 70 | 1018.5 |
| 20260510192150 | 30 | 346 | 1.6 | 9.7 | 0.00 | 0.03 | 0.03 | 76 | 1018.5 |
| 20260510191647 | 30 | 297 | 0.0 | 4.8 | 0.00 | 0.03 | 0.03 | 74 | 1018.4 |
| 20260510191144 | 28 | 312 | 3.2 | 9.7 | 0.00 | 0.03 | 0.03 | 74 | 1018.7 |
| 20260510190641 | 29 | 308 | 3.2 | 4.8 | 0.00 | 0.03 | 0.03 | 74 | 1018.8 |
| 20260510190138 | 29 | 342 | 0.0 | 4.8 | 0.00 | 0.03 | 0.03 | 73 | 1018.9 |
| 20260510185635 | 28 | 283 | 0.0 | 6.4 | 0.00 | 0.03 | 0.03 | 76 | 1018.8 |
| 20260510185133 | 28 | 303 | 4.8 | 9.7 | 0.00 | 0.03 | 0.03 | 74 | 1018.9 |
| 20260510184629 | 29 | 282 | 4.8 | 8.0 | 0.00 | 0.03 | 0.03 | 74 | 1019.0 |
| 20260510184125 | 29 | 330 | 3.2 | 3.2 | 0.00 | 0.03 | 0.03 | 79 | 1019.1 |
| 20260510183620 | 28 | 303 | 3.2 | 6.4 | 0.00 | 0.03 | 0.03 | 77 | 1019.0 |
| 20260510183115 | 28 | 307 | 0.0 | 6.4 | 0.00 | 0.03 | 0.03 | 79 | 1019.1 |
| 20260510182613 | 28 | 333 | 4.8 | 8.0 | 0.00 | 0.03 | 0.03 | 78 | 1019.1 |
| 20260510182108 | 28 | 225 | 0.0 | 4.8 | 0.00 | 0.03 | 0.03 | 75 | 1019.2 |
| 20260510181606 | 28 | 279 | 1.6 | 4.8 | 0.00 | 0.03 | 0.03 | 76 | 1019.0 |
| 20260510181102 | 28 | 195 | 0.0 | 1.6 | 0.00 | 0.03 | 0.03 | 77 | 1019.1 |
| 20260510180558 | 28 | 331 | 0.0 | 3.2 | 0.05 | 0.03 | 0.03 | 86 | 1019.2 |
| 20260510180056 | 28 | 301 | 3.2 | 6.4 | 0.05 | 0.03 | 0.03 | 78 | 1019.3 |
| 20260510175551 | 28 | 270 | 1.6 | 6.4 | 0.00 | 0.03 | 0.03 | 76 | 1019.3 |
| 20260510175047 | 28 | 294 | 3.2 | 8.0 | 0.00 | 0.03 | 0.03 | 78 | 1019.3 |
| 20260510174545 | 28 | 326 | 0.0 | 3.2 | 0.00 | 0.03 | 0.03 | 76 | 1019.2 |
| 20260510174042 | 28 | 315 | 3.2 | 8.0 | 0.00 | 0.03 | 0.03 | 78 | 1019.2 |
| 20260510173537 | 29 | 332 | 8.0 | 11.3 | 0.00 | 0.03 | 0.03 | 76 | 1019.2 |
| 20260510173034 | 28 | 314 | 6.4 | 8.0 | 0.00 | 0.03 | 0.03 | 76 | 1019.4 |
| 20260510172530 | 28 | 283 | 0.0 | 3.2 | 0.00 | 0.03 | 0.03 | 85 | 1019.4 |
| 20260510172027 | 28 | 336 | 3.2 | 4.8 | 0.00 | 0.03 | 0.03 | 76 | 1019.4 |
| 20260510171524 | 27 | 236 | 3.2 | 4.8 | 0.00 | 0.03 | 0.03 | 76 | 1019.5 |
| 20260510171021 | 27 | 348 | 1.6 | 8.0 | 0.00 | 0.03 | 0.03 | 82 | 1019.6 |
| 20260510170517 | 28 | 331 | 1.6 | 3.2 | 0.00 | 0.03 | 0.03 | 81 | 1019.8 |
| 20260510170014 | 28 | 290 | 3.2 | 6.4 | 0.00 | 0.03 | 0.03 | 80 | 1019.7 |
| 20260510165509 | 27 | 331 | 0.0 | 3.2 | 0.00 | 0.03 | 0.03 | 85 | 1019.8 |
| 20260510165006 | 27 | 270 | 0.0 | 0.0 | 0.00 | 0.03 | 0.03 | 84 | 1019.7 |
| 20260510164503 | 27 | 0 | 0.0 | 0.0 | 0.00 | 0.03 | 0.03 | 87 | 1019.7 |
| 20260510163959 | 27 | 110 | 0.0 | 4.8 | 0.00 | 0.03 | 0.03 | 80 | 1019.8 |
| 20260510163454 | 27 | 319 | 3.2 | 8.0 | 0.00 | 0.03 | 0.03 | 77 | 1019.9 |
| 20260510162950 | 27 | 165 | 0.0 | 4.8 | 0.00 | 0.03 | 0.03 | 84 | 1019.8 |
| 20260510162447 | 28 | 254 | 3.2 | 4.8 | 0.00 | 0.03 | 0.03 | 82 | 1019.8 |
| 20260510161942 | 27 | 111 | 0.0 | 3.2 | 0.00 | 0.03 | 0.03 | 82 | 1019.9 |
| 20260510161432 | 27 | 294 | 0.0 | 3.2 | 0.00 | 0.03 | 0.03 | 86 | 1019.8 |
| 20260510160930 | 27 | 12 | 0.0 | 3.2 | 0.00 | 0.03 | 0.03 | 83 | 1019.6 |
| 20260510160427 | 26 | 225 | 0.0 | 4.8 | 0.00 | 0.03 | 0.03 | 83 | 1019.9 |
| 20260510155925 | 26 | 154 | 3.2 | 4.8 | 0.00 | 0.03 | 0.03 | 82 | 1019.8 |
| 20260510155417 | 26 | 139 | 3.2 | 6.4 | 0.00 | 0.03 | 0.03 | 82 | 1020.0 |
| 20260510154914 | 26 | 191 | 0.0 | 12.9 | 0.00 | 0.03 | 0.03 | 85 | 1019.9 |
| 20260510154409 | 26 | 345 | 3.2 | 6.4 | 0.00 | 0.03 | 0.03 | 87 | 1020.0 |
| 20260510153903 | 26 | 270 | 0.0 | 4.8 | 0.00 | 0.03 | 0.03 | 83 | 1020.2 |
| 20260510153400 | 26 | 290 | 0.0 | 4.8 | 0.00 | 0.03 | 0.03 | 83 | 1020.0 |
| 20260510152856 | 26 | 145 | 4.8 | 4.8 | 0.00 | 0.03 | 0.03 | 83 | 1020.0 |
| 20260510152354 | 26 | 312 | 0.0 | 6.4 | 0.00 | 0.03 | 0.03 | 83 | 1020.0 |
| 20260510151850 | 26 | 81 | 1.6 | 1.6 | 0.00 | 0.03 | 0.03 | 84 | 1020.1 |
| 20260510151348 | 26 | 263 | 0.0 | 4.8 | 0.00 | 0.03 | 0.03 | 87 | 1020.1 |
| 20260510150844 | 26 | 140 | 0.0 | 4.8 | 0.00 | 0.03 | 0.03 | 85 | 1020.0 |
| 20260510150339 | 26 | 246 | 1.6 | 4.8 | 0.00 | 0.03 | 0.03 | 89 | 1020.1 |
| 20260510145836 | 25 | 215 | 0.0 | 3.2 | 0.00 | 0.03 | 0.03 | 87 | 1020.0 |
| 20260510145332 | 25 | 276 | 3.2 | 3.2 | 0.00 | 0.03 | 0.03 | 88 | 1020.4 |
| 20260510144829 | 25 | 261 | 0.0 | 0.0 | 0.00 | 0.03 | 0.03 | 94 | 1020.2 |
| 20260510144326 | 25 | 292 | 3.2 | 4.8 | 0.00 | 0.03 | 0.03 | 93 | 1020.4 |
| 20260510143826 | 25 | 285 | 0.0 | 1.6 | 0.00 | 0.03 | 0.03 | 98 | 1020.6 |
| 20260510143322 | 23 | 283 | 0.0 | 3.2 | 0.00 | 0.03 | 0.03 | 99 | 1020.3 |
| 20260510142819 | 22 | 337 | 0.0 | 4.8 | 0.05 | 0.03 | 0.03 | 99 | 1020.4 |
| 20260510142315 | 21 | 289 | 0.0 | 4.8 | 0.05 | 0.03 | 0.03 | 99 | 1020.5 |
| 20260510141812 | 21 | 300 | 0.0 | 3.2 | 0.00 | 0.00 | 0.00 | 99 | 1020.2 |
| 20260510141309 | 21 | 346 | 1.6 | 4.8 | 0.00 | 0.00 | 0.00 | 99 | 1020.3 |
| 20260510140801 | 21 | 330 | 3.2 | 3.2 | 0.00 | 0.00 | 0.00 | 99 | 1020.2 |
| 20260510140256 | 21 | 332 | 4.8 | 4.8 | 0.00 | 0.00 | 0.00 | 99 | 1020.1 |
| 20260510135750 | 20 | 324 | 0.0 | 3.2 | 0.00 | 0.00 | 0.00 | 99 | 1020.3 |
| 20260510135246 | 20 | 294 | 0.0 | 1.6 | 0.00 | 0.00 | 0.00 | 99 | 1019.9 |
| 20260510134744 | 20 | 194 | 0.0 | 3.2 | 0.00 | 0.00 | 0.00 | 99 | 1020.0 |
| 20260510134241 | 21 | 294 | 0.0 | 3.2 | 0.00 | 0.00 | 0.00 | 99 | 1019.8 |
| 20260510133737 | 20 | 270 | 0.0 | 3.2 | 0.00 | 0.00 | 0.00 | 99 | 1020.0 |
| 20260510133232 | 20 | 327 | 0.0 | 3.2 | 0.00 | 0.00 | 0.00 | 99 | 1019.9 |
| 20260510132728 | 20 | 279 | 0.0 | 0.0 | 0.00 | 0.00 | 0.00 | 99 | 1019.8 |
| 20260510132226 | 20 | 349 | 0.0 | 3.2 | 0.00 | 0.00 | 0.00 | 99 | 1020.0 |
| 20260510131723 | 20 | 262 | 0.0 | 0.0 | 0.00 | 0.00 | 0.00 | 99 | 1019.9 |
| 20260510131221 | 20 | 352 | 0.0 | 1.6 | 0.00 | 0.00 | 0.00 | 99 | 1019.8 |
| 20260510130717 | 20 | 353 | 0.0 | 1.6 | 0.00 | 0.00 | 0.00 | 99 | 1019.9 |
| 20260510130215 | 20 | 340 | 0.0 | 0.0 | 0.00 | 0.00 | 0.00 | 99 | 1019.6 |
| 20260510125710 | 19 | 291 | 0.0 | 3.2 | 0.00 | 0.00 | 0.00 | 99 | 1020.1 |
| 20260510125207 | 19 | 237 | 0.0 | 0.0 | 0.00 | 0.00 | 0.00 | 99 | 1019.9 |
| 20260510124703 | 18 | 237 | 0.0 | 0.0 | 0.00 | 0.00 | 0.00 | 99 | 1019.7 |
| 20260510124200 | 18 | 270 | 0.0 | 1.6 | 0.00 | 0.00 | 0.00 | 99 | 1019.6 |
| 20260510123650 | 18 | 279 | 0.0 | 0.0 | 0.00 | 0.00 | 0.00 | 99 | 1019.6 |
| 20260510123146 | 18 | 283 | 0.0 | 1.6 | 0.00 | 0.00 | 0.00 | 99 | 1019.4 |
| 20260510122643 | 18 | 294 | 0.0 | 3.2 | 0.00 | 0.00 | 0.00 | 99 | 1019.4 |
| 20260510122139 | 18 | 345 | 0.0 | 0.0 | 0.00 | 0.00 | 0.00 | 99 | 1019.1 |
| 20260510121635 | 18 | 254 | 0.0 | 0.0 | 0.00 | 0.00 | 0.00 | 99 | 1019.4 |
| 20260510121133 | 18 | 254 | 0.0 | 3.2 | 0.00 | 0.00 | 0.00 | 99 | 1019.1 |
| 20260510120631 | 18 | 270 | 0.0 | 0.0 | 0.00 | 0.00 | 0.00 | 99 | 1019.2 |
| 20260510120126 | 17 | 353 | 0.0 | 1.6 | 0.00 | 0.00 | 0.00 | 99 | 1019.2 |
| 20260510115623 | 18 | 340 | 0.0 | 0.0 | 0.00 | 0.00 | 0.00 | 99 | 1018.8 |
| 20260510115121 | 18 | 340 | 0.0 | 0.0 | 0.00 | 0.00 | 0.00 | 99 | 1018.7 |
| 20260510114616 | 17 | 340 | 0.0 | 0.0 | 0.00 | 0.00 | 0.00 | 99 | 1018.8 |
| 20260510114112 | 17 | 340 | 0.0 | 0.0 | 0.00 | 0.00 | 0.00 | 99 | 1018.7 |
| 20260510113608 | 17 | 340 | 0.0 | 0.0 | 0.00 | 0.00 | 0.00 | 99 | 1018.5 |
| 20260510113105 | 17 | 340 | 0.0 | 0.0 | 0.00 | 0.00 | 0.00 | 99 | 1018.7 |
| 20260510112602 | 17 | 340 | 0.0 | 0.0 | 0.00 | 0.00 | 0.00 | 99 | 1018.5 |
| 20260510112058 | 17 | 340 | 0.0 | 0.0 | 0.00 | 0.00 | 0.00 | 99 | 1018.7 |
| 20260510111554 | 17 | 340 | 0.0 | 0.0 | 0.00 | 0.00 | 0.00 | 99 | 1018.7 |
| 20260510111051 | 17 | 340 | 0.0 | 0.0 | 0.00 | 0.00 | 0.00 | 99 | 1018.4 |
| 20260510110547 | 17 | 345 | 0.0 | 1.6 | 0.00 | 0.00 | 0.00 | 99 | 1018.4 |
| 20260510110043 | 17 | 254 | 0.0 | 0.0 | 0.00 | 0.00 | 0.00 | 99 | 1018.4 |
| 20260510105539 | 17 | 254 | 0.0 | 0.0 | 0.00 | 0.00 | 0.00 | 99 | 1018.2 |
| 20260510105034 | 17 | 285 | 0.0 | 0.0 | 0.00 | 0.00 | 0.00 | 99 | 1018.1 |
| 20260510104531 | 17 | 285 | 0.0 | 0.0 | 0.00 | 0.00 | 0.00 | 99 | 1017.8 |
| 20260510104027 | 18 | 285 | 0.0 | 0.0 | 0.00 | 0.00 | 0.00 | 99 | 1017.9 |
| 20260510103525 | 17 | 285 | 0.0 | 0.0 | 0.00 | 0.00 | 0.00 | 99 | 1017.9 |
| 20260510103021 | 17 | 285 | 0.0 | 0.0 | 0.00 | 0.00 | 0.00 | 99 | 1017.9 |
| 20260510102516 | 18 | 285 | 0.0 | 1.6 | 0.00 | 0.00 | 0.00 | 99 | 1017.5 |
| 20260510102013 | 18 | 270 | 0.0 | 0.0 | 0.00 | 0.00 | 0.00 | 99 | 1017.6 |
| 20260510101510 | 17 | 324 | 0.0 | 0.0 | 0.00 | 0.00 | 0.00 | 99 | 1017.7 |
| 20260510101009 | 17 | 324 | 0.0 | 0.0 | 0.00 | 0.00 | 0.00 | 99 | 1017.6 |
| 20260510100505 | 17 | 324 | 0.0 | 0.0 | 0.00 | 0.00 | 0.00 | 99 | 1017.4 |
| 20260510100002 | 17 | 324 | 0.0 | 0.0 | 0.00 | 0.00 | 0.00 | 99 | 1017.5 |
| 20260510095457 | 17 | 324 | 0.0 | 3.2 | 0.00 | 0.00 | 0.00 | 99 | 1017.6 |
| 20260510094956 | 17 | 352 | 0.0 | 0.0 | 0.00 | 0.00 | 0.00 | 99 | 1017.6 |
| 20260510094451 | 17 | 352 | 0.0 | 0.0 | 0.00 | 0.00 | 0.00 | 99 | 1017.1 |
| 20260510093947 | 17 | 352 | 0.0 | 0.0 | 0.00 | 0.00 | 0.00 | 99 | 1017.5 |
| 20260510093443 | 17 | 352 | 0.0 | 0.0 | 0.00 | 0.00 | 0.00 | 99 | 1017.3 |
| 20260510092939 | 17 | 352 | 0.0 | 0.0 | 0.00 | 0.00 | 0.00 | 99 | 1017.2 |
| 20260510092436 | 17 | 352 | 0.0 | 1.6 | 0.00 | 0.00 | 0.00 | 99 | 1017.4 |
| 20260510091931 | 17 | 336 | 0.0 | 0.0 | 0.00 | 0.00 | 0.00 | 99 | 1017.3 |
| 20260510091428 | 17 | 336 | 0.0 | 0.0 | 0.00 | 0.00 | 0.00 | 99 | 1017.0 |
| 20260510090924 | 18 | 336 | 0.0 | 0.0 | 0.00 | 0.00 | 0.00 | 99 | 1017.1 |
| 20260510090421 | 18 | 325 | 1.6 | 3.2 | 0.00 | 0.00 | 0.00 | 99 | 1017.2 |
| 20260510085917 | 17 | 285 | 0.0 | 0.0 | 0.00 | 0.00 | 0.00 | 99 | 1016.9 |
| 20260510085412 | 17 | 285 | 0.0 | 0.0 | 0.00 | 0.00 | 0.00 | 99 | 1016.7 |
| 20260510084907 | 17 | 285 | 0.0 | 0.0 | 0.00 | 0.00 | 0.00 | 99 | 1016.6 |
| 20260510084405 | 18 | 285 | 0.0 | 1.6 | 0.00 | 0.00 | 0.00 | 99 | 1016.5 |
| 20260510083902 | 18 | 0 | 1.6 | 1.6 | 0.00 | 0.00 | 0.00 | 99 | 1016.6 |
| 20260510083358 | 17 | 294 | 0.0 | 1.6 | 0.00 | 0.00 | 0.00 | 99 | 1016.4 |
| 20260510082854 | 18 | 300 | 0.0 | 0.0 | 0.00 | 0.00 | 0.00 | 99 | 1016.6 |
| 20260510082352 | 18 | 300 | 0.0 | 0.0 | 0.00 | 0.00 | 0.00 | 99 | 1016.5 |
| 20260510081850 | 18 | 300 | 0.0 | 0.0 | 0.00 | 0.00 | 0.00 | 99 | 1016.7 |
| 20260510081346 | 18 | 337 | 0.0 | 0.0 | 0.00 | 0.00 | 0.00 | 99 | 1016.3 |
| 20260510080843 | 18 | 0 | 0.0 | 0.0 | 0.00 | 0.00 | 0.00 | 99 | 1016.3 |
| 20260510080337 | 18 | 0 | 0.0 | 0.0 | 0.00 | 0.00 | 0.00 | 99 | 1016.3 |
| 20260510075834 | 18 | 0 | 0.0 | 0.0 | 0.00 | 0.00 | 0.00 | 99 | 1016.4 |
| 20260510075332 | 18 | 0 | 0.0 | 0.0 | 0.00 | 0.00 | 0.00 | 99 | 1016.3 |
| 20260510074828 | 18 | 0 | 0.0 | 0.0 | 0.00 | 0.00 | 0.00 | 99 | 1016.0 |
| 20260510074326 | 18 | 0 | 0.0 | 0.0 | 0.00 | 0.00 | 0.00 | 99 | 1016.2 |
| 20260510073822 | 18 | 0 | 0.0 | 0.0 | 0.00 | 0.00 | 0.00 | 99 | 1016.2 |
| 20260510073317 | 18 | 332 | 0.0 | 0.0 | 0.00 | 0.00 | 0.00 | 99 | 1016.3 |
| 20260510072814 | 18 | 332 | 0.0 | 0.0 | 0.00 | 0.00 | 0.00 | 99 | 1016.1 |
| 20260510072310 | 18 | 346 | 0.0 | 0.0 | 0.00 | 0.00 | 0.00 | 99 | 1016.1 |
| 20260510071807 | 18 | 346 | 0.0 | 0.0 | 0.00 | 0.00 | 0.00 | 99 | 1016.1 |
| 20260510071303 | 18 | 346 | 0.0 | 0.0 | 0.00 | 0.00 | 0.00 | 99 | 1016.0 |
| 20260510070802 | 18 | 346 | 0.0 | 0.0 | 0.00 | 0.00 | 0.00 | 99 | 1016.0 |
| 20260510070258 | 18 | 346 | 0.0 | 1.6 | 0.00 | 0.00 | 0.00 | 99 | 1016.2 |
| 20260510065753 | 19 | 106 | 1.6 | 3.2 | 0.00 | 0.00 | 0.00 | 99 | 1016.1 |
| 20260510065250 | 19 | 261 | 0.0 | 0.0 | 0.00 | 0.00 | 0.00 | 99 | 1016.5 |
| 20260510064746 | 19 | 261 | 0.0 | 0.0 | 0.00 | 0.00 | 0.00 | 99 | 1016.3 |
| 20260510064245 | 18 | 261 | 0.0 | 0.0 | 0.00 | 0.00 | 0.00 | 99 | 1016.5 |
| 20260510063740 | 18 | 261 | 0.0 | 0.0 | 0.00 | 0.00 | 0.00 | 99 | 1016.2 |
| 20260510063237 | 18 | 0 | 0.0 | 0.0 | 0.00 | 0.00 | 0.00 | 99 | 1016.3 |
| 20260510062733 | 19 | 0 | 0.0 | 0.0 | 0.00 | 0.00 | 0.00 | 99 | 1016.6 |
| 20260510062229 | 18 | 0 | 0.0 | 0.0 | 0.00 | 0.00 | 0.00 | 99 | 1016.7 |
| 20260510061725 | 18 | 345 | 0.0 | 0.0 | 0.00 | 0.00 | 0.00 | 99 | 1016.7 |
| 20260510061222 | 18 | 345 | 0.0 | 0.0 | 0.00 | 0.00 | 0.00 | 99 | 1016.6 |
| 20260510060718 | 19 | 345 | 0.0 | 0.0 | 0.00 | 0.00 | 0.00 | 99 | 1016.7 |
| 20260510060215 | 19 | 353 | 0.0 | 0.0 | 0.00 | 0.00 | 0.00 | 99 | 1016.6 |
| 20260510055712 | 19 | 353 | 0.0 | 0.0 | 0.00 | 0.00 | 0.00 | 99 | 1016.6 |
| 20260510055210 | 19 | 353 | 0.0 | 3.2 | 0.00 | 0.00 | 0.00 | 99 | 1016.8 |
| 20260510054705 | 19 | 180 | 0.0 | 0.0 | 0.00 | 0.00 | 0.00 | 99 | 1016.9 |
| 20260510054201 | 19 | 180 | 0.0 | 0.0 | 0.00 | 0.00 | 0.00 | 99 | 1016.6 |
| 20260510053700 | 19 | 180 | 0.0 | 0.0 | 0.05 | 0.00 | 0.00 | 99 | 1016.6 |
| 20260510053157 | 19 | 180 | 0.0 | 0.0 | 0.05 | 0.00 | 0.00 | 99 | 1016.4 |
| 20260510052653 | 19 | 180 | 0.0 | 0.0 | 0.00 | 0.00 | 0.00 | 99 | 1016.4 |
| 20260510052149 | 19 | 0 | 0.0 | 0.0 | 0.00 | 0.00 | 0.00 | 99 | 1016.5 |
| 20260510051645 | 19 | 0 | 0.0 | 0.0 | 0.00 | 0.00 | 0.00 | 99 | 1016.8 |
| 20260510051142 | 19 | 0 | 0.0 | 0.0 | 0.00 | 0.00 | 0.00 | 99 | 1016.8 |
| 20260510050639 | 19 | 0 | 0.0 | 0.0 | 0.00 | 0.00 | 0.00 | 99 | 1016.6 |
| 20260510050136 | 19 | 0 | 0.0 | 0.0 | 0.00 | 0.00 | 0.00 | 99 | 1016.6 |
| 20260510045633 | 19 | 0 | 0.0 | 0.0 | 0.00 | 0.03 | 0.03 | 99 | 1017.0 |
| 20260510045129 | 19 | 0 | 0.0 | 0.0 | 0.00 | 0.03 | 0.03 | 99 | 1017.0 |
| 20260510044625 | 19 | 0 | 0.0 | 0.0 | 0.00 | 0.03 | 0.03 | 99 | 1017.0 |
| 20260510044123 | 19 | 353 | 0.0 | 0.0 | 0.00 | 0.03 | 0.03 | 99 | 1017.5 |
| 20260510043618 | 19 | 353 | 0.0 | 0.0 | 0.00 | 0.03 | 0.03 | 99 | 1017.1 |
| 20260510043115 | 19 | 353 | 0.0 | 1.6 | 0.00 | 0.03 | 0.03 | 99 | 1017.0 |
| 20260510042613 | 19 | 180 | 0.0 | 0.0 | 0.00 | 0.03 | 0.03 | 99 | 1017.1 |
| 20260510042108 | 20 | 180 | 0.0 | 0.0 | 0.00 | 0.03 | 0.03 | 99 | 1017.3 |
| 20260510041600 | 19 | 173 | 0.0 | 1.6 | 0.00 | 0.03 | 0.03 | 99 | 1017.4 |
| 20260510041057 | 19 | 352 | 0.0 | 0.0 | 0.00 | 0.03 | 0.03 | 99 | 1017.4 |
| 20260510040554 | 19 | 352 | 0.0 | 0.0 | 0.00 | 0.03 | 0.03 | 99 | 1017.6 |
| 20260510040050 | 19 | 345 | 0.0 | 0.0 | 0.00 | 0.03 | 0.03 | 99 | 1017.6 |
| 20260510035547 | 19 | 345 | 0.0 | 0.0 | 0.00 | 0.03 | 0.03 | 99 | 1017.6 |
| 20260510035046 | 19 | 345 | 0.0 | 0.0 | 0.00 | 0.03 | 0.03 | 99 | 1017.4 |
| 20260510034545 | 19 | 345 | 0.0 | 0.0 | 0.00 | 0.03 | 0.03 | 99 | 1017.6 |
| 20260510034041 | 20 | 0 | 0.0 | 0.0 | 0.00 | 0.03 | 0.03 | 99 | 1017.7 |
| 20260510033537 | 19 | 0 | 0.0 | 0.0 | 0.00 | 0.03 | 0.03 | 99 | 1017.6 |
| 20260510033036 | 20 | 0 | 0.0 | 0.0 | 0.00 | 0.03 | 0.03 | 99 | 1017.4 |
| 20260510032532 | 19 | 14 | 0.0 | 3.2 | 0.00 | 0.03 | 0.03 | 99 | 1017.2 |
| 20260510032027 | 19 | 15 | 0.0 | 0.0 | 0.00 | 0.03 | 0.03 | 99 | 1017.0 |
| 20260510031522 | 20 | 15 | 0.0 | 0.0 | 0.00 | 0.03 | 0.03 | 99 | 1016.8 |
| 20260510031018 | 19 | 15 | 0.0 | 0.0 | 0.00 | 0.03 | 0.03 | 99 | 1016.9 |
| 20260510030514 | 19 | 15 | 0.0 | 0.0 | 0.00 | 0.03 | 0.03 | 99 | 1016.9 |
| 20260510030011 | 19 | 15 | 0.0 | 0.0 | 0.00 | 0.03 | 0.03 | 99 | 1016.9 |
| 20260510025508 | 19 | 15 | 0.0 | 0.0 | 0.00 | 0.03 | 0.03 | 99 | 1017.1 |
| 20260510025006 | 19 | 15 | 0.0 | 0.0 | 0.00 | 0.03 | 0.03 | 99 | 1017.2 |
| 20260510024502 | 19 | 15 | 0.0 | 0.0 | 0.00 | 0.03 | 0.03 | 99 | 1017.2 |
| 20260510023958 | 19 | 15 | 0.0 | 0.0 | 0.00 | 0.03 | 0.03 | 99 | 1017.0 |
| 20260510023455 | 19 | 15 | 0.0 | 0.0 | 0.00 | 0.03 | 0.03 | 99 | 1017.0 |
| 20260510022952 | 19 | 15 | 0.0 | 0.0 | 0.00 | 0.03 | 0.03 | 99 | 1017.2 |
| 20260510022451 | 19 | 15 | 0.0 | 0.0 | 0.00 | 0.03 | 0.03 | 99 | 1017.0 |
| 20260510021950 | 19 | 15 | 0.0 | 0.0 | 0.00 | 0.03 | 0.03 | 99 | 1017.0 |
| 20260510021448 | 19 | 15 | 0.0 | 0.0 | 0.00 | 0.03 | 0.03 | 99 | 1016.9 |
| 20260510020944 | 19 | 15 | 0.0 | 0.0 | 0.00 | 0.03 | 0.03 | 99 | 1016.9 |
| 20260510020439 | 19 | 15 | 0.0 | 0.0 | 0.00 | 0.03 | 0.03 | 99 | 1017.0 |
| 20260510015935 | 19 | 15 | 0.0 | 0.0 | 0.00 | 0.03 | 0.03 | 99 | 1017.2 |
| 20260510015431 | 19 | 15 | 0.0 | 0.0 | 0.00 | 0.03 | 0.03 | 99 | 1017.0 |
| 20260510014926 | 19 | 15 | 0.0 | 0.0 | 0.00 | 0.03 | 0.03 | 99 | 1017.2 |
| 20260510014424 | 19 | 352 | 0.0 | 1.6 | 0.00 | 0.03 | 0.03 | 99 | 1017.3 |
| 20260510013920 | 19 | 0 | 0.0 | 0.0 | 0.00 | 0.03 | 0.03 | 99 | 1017.2 |
| 20260510013415 | 20 | 0 | 0.0 | 0.0 | 0.00 | 0.03 | 0.03 | 99 | 1016.8 |
| 20260510012911 | 19 | 0 | 0.0 | 0.0 | 0.00 | 0.03 | 0.03 | 99 | 1017.0 |
| 20260510012406 | 20 | 0 | 0.0 | 0.0 | 0.00 | 0.03 | 0.03 | 99 | 1017.1 |
| 20260510011901 | 20 | 0 | 0.0 | 0.0 | 0.00 | 0.03 | 0.03 | 99 | 1017.3 |
| 20260510011356 | 20 | 0 | 0.0 | 0.0 | 0.00 | 0.03 | 0.03 | 99 | 1017.3 |
| 20260510010853 | 20 | 340 | 0.0 | 3.2 | 0.00 | 0.03 | 0.03 | 99 | 1017.0 |
| 20260510010350 | 20 | 297 | 3.2 | 3.2 | 0.00 | 0.03 | 0.03 | 99 | 1017.0 |
| 20260510005846 | 20 | 349 | 0.0 | 3.2 | 0.00 | 0.03 | 0.03 | 99 | 1016.6 |
| 20260510005343 | 20 | 352 | 0.0 | 0.0 | 0.00 | 0.03 | 0.03 | 99 | 1016.1 |
| 20260510004840 | 20 | 352 | 0.0 | 0.0 | 0.00 | 0.03 | 0.03 | 99 | 1016.3 |
| 20260510004338 | 20 | 352 | 0.0 | 0.0 | 0.00 | 0.03 | 0.03 | 99 | 1016.4 |
| 20260510003836 | 20 | 352 | 0.0 | 0.0 | 0.00 | 0.03 | 0.03 | 99 | 1016.4 |
| 20260510003332 | 20 | 352 | 0.0 | 0.0 | 0.00 | 0.03 | 0.03 | 99 | 1016.1 |
| 20260510002831 | 20 | 221 | 0.0 | 0.0 | 0.00 | 0.03 | 0.03 | 99 | 1016.1 |
| 20260510002328 | 20 | 221 | 0.0 | 0.0 | 0.00 | 0.03 | 0.03 | 99 | 1015.9 |
| 20260510001825 | 20 | 221 | 0.0 | 0.0 | 0.00 | 0.03 | 0.03 | 99 | 1016.0 |
| 20260510001323 | 20 | 221 | 0.0 | 0.0 | 0.00 | 0.03 | 0.03 | 99 | 1015.7 |
| 20260510000819 | 20 | 221 | 0.0 | 0.0 | 0.00 | 0.03 | 0.03 | 99 | 1015.4 |
| 20260510000318 | 20 | 221 | 0.0 | 0.0 | 0.00 | 0.03 | 0.03 | 99 | 1015.4 |
| 20260509235813 | 20 | 221 | 0.0 | 0.0 | 0.00 | 0.03 | 0.03 | 99 | 1015.6 |
| 20260509235310 | 20 | 221 | 0.0 | 0.0 | 0.00 | 0.03 | 0.03 | 99 | 1015.7 |
| 20260509234806 | 20 | 221 | 0.0 | 0.0 | 0.00 | 0.03 | 0.03 | 99 | 1015.9 |
| 20260509234302 | 20 | 221 | 0.0 | 0.0 | 0.00 | 0.03 | 0.03 | 99 | 1015.8 |
| 20260509233801 | 20 | 221 | 0.0 | 0.0 | 0.00 | 0.03 | 0.03 | 99 | 1016.0 |
| 20260509233258 | 20 | 221 | 0.0 | 0.0 | 0.00 | 0.03 | 0.03 | 99 | 1016.1 |
| 20260509232754 | 20 | 221 | 0.0 | 0.0 | 0.00 | 0.03 | 0.03 | 99 | 1015.9 |
| 20260509232251 | 20 | 103 | 0.0 | 1.6 | 0.00 | 0.03 | 0.03 | 99 | 1016.0 |
| 20260509231747 | 20 | 261 | 0.0 | 0.0 | 0.00 | 0.03 | 0.03 | 99 | 1015.8 |
| 20260509231244 | 20 | 194 | 0.0 | 1.6 | 0.00 | 0.03 | 0.03 | 99 | 1015.7 |
| 20260509230742 | 20 | 172 | 0.0 | 1.6 | 0.00 | 0.03 | 0.03 | 99 | 1016.0 |
| 20260509230239 | 20 | 180 | 0.0 | 0.0 | 0.00 | 0.03 | 0.03 | 99 | 1015.8 |
| 20260509225734 | 20 | 249 | 0.0 | 1.6 | 0.05 | 0.03 | 0.03 | 99 | 1015.7 |
| 20260509225230 | 20 | 166 | 1.6 | 4.8 | 0.05 | 0.03 | 0.03 | 99 | 1015.8 |
| 20260509224726 | 20 | 124 | 3.2 | 3.2 | 0.00 | 0.00 | 0.00 | 99 | 1016.0 |
| 20260509224224 | 20 | 203 | 0.0 | 3.2 | 0.00 | 0.00 | 0.00 | 99 | 1015.8 |
| 20260509223720 | 21 | 131 | 0.0 | 3.2 | 0.00 | 0.00 | 0.00 | 99 | 1015.9 |
| 20260509223217 | 21 | 270 | 0.0 | 0.0 | 0.00 | 0.00 | 0.00 | 99 | 1015.7 |
| 20260509222714 | 21 | 270 | 0.0 | 3.2 | 0.00 | 0.00 | 0.00 | 99 | 1015.7 |
| 20260509222209 | 21 | 331 | 0.0 | 1.6 | 0.00 | 0.00 | 0.00 | 99 | 1015.8 |
| 20260509221705 | 21 | 345 | 0.0 | 0.0 | 0.00 | 0.00 | 0.00 | 99 | 1015.7 |
| 20260509221201 | 20 | 337 | 0.0 | 0.0 | 0.00 | 0.00 | 0.00 | 99 | 1015.7 |
| 20260509220657 | 21 | 340 | 0.0 | 1.6 | 0.00 | 0.00 | 0.00 | 99 | 1015.7 |
| 20260509220148 | 21 | 337 | 0.0 | 3.2 | 0.00 | 0.00 | 0.00 | 99 | 1015.8 |
| 20260509215644 | 21 | 345 | 3.2 | 4.8 | 0.00 | 0.00 | 0.00 | 99 | 1015.7 |
| 20260509215141 | 21 | 346 | 0.0 | 0.0 | 0.00 | 0.00 | 0.00 | 99 | 1015.3 |
| 20260509214638 | 21 | 346 | 0.0 | 0.0 | 0.00 | 0.00 | 0.00 | 99 | 1015.3 |
| 20260509214135 | 21 | 345 | 0.0 | 0.0 | 0.00 | 0.00 | 0.00 | 99 | 1015.4 |
| 20260509213631 | 21 | 345 | 0.0 | 3.2 | 0.00 | 0.00 | 0.00 | 99 | 1015.5 |
| 20260509213127 | 21 | 279 | 0.0 | 1.6 | 0.00 | 0.00 | 0.00 | 99 | 1015.3 |
| 20260509212625 | 21 | 337 | 1.6 | 4.8 | 0.00 | 0.00 | 0.00 | 99 | 1015.5 |
| 20260509212122 | 21 | 292 | 0.0 | 6.4 | 0.00 | 0.00 | 0.00 | 99 | 1015.6 |
| 20260509211618 | 21 | 299 | 4.8 | 8.0 | 0.00 | 0.00 | 0.00 | 99 | 1015.6 |
| 20260509211114 | 21 | 334 | 1.6 | 6.4 | 0.00 | 0.00 | 0.00 | 99 | 1015.5 |
| 20260509210611 | 21 | 8 | 3.2 | 6.4 | 0.00 | 0.00 | 0.00 | 99 | 1015.4 |
| 20260509210108 | 21 | 261 | 0.0 | 3.2 | 0.00 | 0.00 | 0.00 | 99 | 1015.1 |
| 20260509205602 | 21 | 294 | 0.0 | 3.2 | 0.00 | 0.00 | 0.00 | 99 | 1015.0 |
| 20260509205057 | 21 | 303 | 0.0 | 3.2 | 0.00 | 0.00 | 0.00 | 99 | 1014.9 |